TimeMST,TemperatureF,Dew PointF,Humidity,Sea Level PressureIn,VisibilityMPH,Wind Direction,Wind SpeedMPH,Gust SpeedMPH,PrecipitationIn,Events,Conditions,WindDirDegrees,DateUTC
12:53 AM,26.1,19.0,75,30.31,10.0,SW,4.6,-,N/A,,Clear,230,2013-02-03 07:53:00
1:53 AM,25.0,19.0,78,30.29,10.0,West,5.8,-,N/A,,Clear,270,2013-02-03 08:53:00
2:53 AM,25.0,19.0,78,30.26,10.0,West,5.8,-,N/A,,Clear,260,2013-02-03 09:53:00
3:53 AM,19.0,15.1,85,30.25,10.0,Calm,Calm,-,N/A,,Clear,0,2013-02-03 10:53:00
4:53 AM,21.9,18.0,85,30.25,10.0,WSW,4.6,-,N/A,,Clear,250,2013-02-03 11:53:00
5:53 AM,21.9,17.1,82,30.25,10.0,Calm,Calm,-,N/A,,Clear,0,2013-02-03 12:53:00
6:53 AM,21.9,18.0,85,30.23,10.0,WSW,5.8,-,N/A,,Clear,240,2013-02-03 13:53:00
7:53 AM,26.1,19.0,75,30.22,10.0,WSW,8.1,-,N/A,,Clear,240,2013-02-03 14:53:00
8:53 AM,32.0,23.0,69,30.18,10.0,SW,5.8,-,N/A,,Clear,230,2013-02-03 15:53:00
9:53 AM,41.0,23.0,49,30.15,10.0,SW,11.5,-,N/A,,Clear,220,2013-02-03 16:53:00
10:53 AM,46.0,19.9,35,30.10,10.0,SSW,17.3,-,N/A,,Clear,200,2013-02-03 17:53:00
11:53 AM,50.0,19.9,31,30.02,10.0,SSW,19.6,26.5,N/A,,Clear,200,2013-02-03 18:53:00
12:53 PM,52.0,19.9,28,29.97,10.0,SSW,17.3,-,N/A,,Clear,210,2013-02-03 19:53:00
1:53 PM,52.0,21.0,30,29.93,10.0,SSW,12.7,-,N/A,,Clear,210,2013-02-03 20:53:00
2:53 PM,52.0,21.9,31,29.91,10.0,SSW,10.4,-,N/A,,Clear,200,2013-02-03 21:53:00
3:53 PM,51.1,23.0,33,29.92,10.0,SW,3.5,-,N/A,,Clear,230,2013-02-03 22:53:00
4:53 PM,44.1,24.1,45,29.91,10.0,SW,6.9,-,N/A,,Clear,220,2013-02-03 23:53:00
5:53 PM,41.0,24.1,51,29.91,10.0,WSW,4.6,-,N/A,,Clear,240,2013-02-04 00:53:00
6:53 PM,37.0,23.0,57,29.91,10.0,WSW,6.9,-,N/A,,Clear,250,2013-02-04 01:53:00
7:53 PM,37.0,23.0,57,29.91,10.0,WNW,8.1,-,N/A,,Clear,290,2013-02-04 02:53:00
8:53 PM,39.0,23.0,53,29.90,10.0,WNW,11.5,-,N/A,,Clear,300,2013-02-04 03:53:00
9:53 PM,37.0,21.0,52,29.90,10.0,NW,16.1,-,N/A,,Clear,310,2013-02-04 04:53:00
10:53 PM,35.1,21.0,57,29.91,10.0,NW,13.8,-,N/A,,Clear,320,2013-02-04 05:53:00
11:53 PM,33.1,21.9,64,29.93,10.0,NNW,12.7,-,N/A,,Clear,330,2013-02-04 06:53:00